Location: Rome
(43.2189°N, 75.4531°W)
Time: 13:34:13
(UTC+00:00)

X-37B - Visible Passes

Search period start: 02 December 2022 00:00
Search period end: 12 December 2022 00:00
Orbit: 277 x 277 km, 45.0° (Epoch: 01 November)

Date Brightness Start Highest point End Pass type
(mag) Time Alt. Az. Time Alt. Az. Time Alt. Az.
06 Dec 3.0 23:31:34 10° SW 23:32:02 14° SW 23:32:02 14° SW visible
07 Dec 2.9 23:32:01 10° WSW 23:32:48 18° SW 23:32:48 18° SW visible
08 Dec 2.2 21:59:33 10° S 22:01:10 16° SSE 22:02:47 10° ESE visible
08 Dec 2.8 23:32:38 10° WSW 23:33:32 19° WSW 23:33:32 19° WSW visible
09 Dec 1.5 21:59:35 10° SSW 22:01:43 26° SSE 22:03:52 10° E visible
09 Dec 2.9 23:33:21 10° W 23:34:13 19° W 23:34:13 19° W visible
10 Dec 0.6 21:59:57 10° SW 22:02:19 45° SSE 22:04:42 10° E visible
10 Dec 3.0 23:34:06 10° W 23:34:52 17° W 23:34:52 17° W visible
11 Dec 0.0 22:00:31 10° WSW 22:02:58 76° SSE 22:05:26 10° ENE visible
11 Dec 3.0 23:34:50 10° WNW 23:35:31 16° WNW 23:35:31 16° WNW visible
